Theta_e
340 341 342 348 350 350 350 350 350 350 350 350 350 350 350 348 347 347 346 346 343 342 341 341 340 341 341 341 341 341 343 343 343 344 343 347 348 349 348 347 346 347 348 347 347 347 348 347 345 344 344 344 343 343 342 342 343 342 342 341 340 341 341 342 342 341 340 340 341 341 343 344 344 344 343 344 343 342 341 341 340 337 338 339 342
340 342 342 344 350 350 350 350 350 350 349 350 350 350 349 347 346 345 345 343 341 341 342 341 341 340 341 342 343 342 342 342 342 343 346 346 347 347 347 347 346 346 347 346 346 346 345 345 345 344 344 343 344 343 343 342 341 341 341 340 340 340 340 340 341 341 341 342 342 342 342 342 344 344 345 345 343 341 341 340 339 336 336 341 342
342 342 342 346 349 350 350 350 350 350 350 350 350 349 348 348 347 346 345 345 343 340 340 340 340 341 341 340 341 341 342 342 343 348 348 348 347 347 347 346 345 345 346 346 344 344 344 343 344 344 344 343 342 342 341 339 339 340 339 338 339 339 339 339 340 340 340 340 341 342 341 342 343 343 345 344 343 343 341 341 340 338 335 340 341
342 343 343 345 347 349 350 349 349 349 349 350 350 348 346 345 344 343 343 343 343 342 342 342 342 340 340 340 340 340 341 341 343 346 347 347 346 345 344 344 342 341 341 341 342 342 342 343 343 343 342 342 342 340 339 339 339 338 339 339 339 338 338 339 339 339 339 338 337 337 335 333 337 341 341 341 341 342 339 341 341 340 340 340 339
343 344 343 345 346 348 350 350 349 350 350 350 349 349 347 345 344 344 343 341 341 340 340 339 338 339 340 340 340 340 340 341 340 343 345 346 346 345 343 343 342 343 342 342 340 341 341 342 342 343 343 342 342 340 338 339 337 338 338 339 338 338 338 338 337 338 338 337 336 333 330 331 332 337 340 339 340 340 339 339 339 341 340 340 342
343 344 343 344 345 346 348 349 349 350 350 350 349 347 346 346 345 345 344 343 342 341 341 340 339 339 339 339 339 339 338 339 346 348 347 347 346 344 342 342 342 342 341 340 339 340 340 342 342 342 342 342 341 340 339 338 337 337 337 338 338 337 337 337 337 336 335 334 333 328 328 330 331 333 339 337 337 337 339 341 341 342 341 342 342
344 344 343 343 343 344 346 349 349 350 350 349 349 347 346 345 345 345 344 342 341 340 339 339 340 339 339 339 339 338 339 339 343 345 345 345 343 342 340 339 338 338 337 338 339 339 340 340 342 342 343 342 341 340 339 339 337 337 337 337 337 337 336 335 335 334 333 328 325 325 327 329 330 332 337 340 341 341 340 341 341 342 342 342 342
343 344 343 342 342 344 345 349 350 350 350 349 348 347 345 345 344 343 342 341 341 340 340 340 340 340 339 339 339 339 338 339 344 344 344 344 343 341 339 338 337 338 338 338 339 340 339 339 341 342 343 343 342 340 339 338 338 337 336 336 336 336 336 335 334 333 331 325 324 324 326 329 333 335 343 343 342 342 341 341 340 341 341 340 337
343 343 343 342 341 343 345 347 350 350 349 349 348 346 346 345 344 345 344 341 340 340 340 341 340 339 340 339 338 338 337 342 342 342 342 342 341 340 338 338 338 338 338 339 339 338 338 340 341 342 342 342 341 338 338 340 341 340 339 339 338 338 337 336 335 333 330 328 328 329 331 332 333 335 341 341 341 341 341 339 339 340 339 337 337
343 343 342 341 341 342 345 347 350 350 349 349 348 347 346 345 345 344 342 342 341 341 340 340 340 339 339 339 339 338 336 342 342 341 340 340 339 339 339 341 341 340 337 337 338 338 339 340 341 341 341 342 342 342 341 341 341 341 340 340 340 338 337 336 334 332 329 330 331 332 333 336 334 335 339 341 341 340 338 336 336 336 336 337 337
343 342 341 341 341 342 346 349 349 349 349 349 348 347 346 345 345 344 342 341 341 340 340 340 340 339 338 338 338 337 339 339 339 340 340 340 342 342 341 342 341 338 336 337 338 338 339 341 341 341 341 342 341 341 342 342 342 341 341 340 339 338 336 334 332 328 329 329 329 331 335 337 333 334 339 340 340 339 336 337 336 337 337 337 337
342 342 342 341 343 341 346 348 348 349 349 349 348 347 346 345 346 345 344 342 341 340 340 340 339 339 339 337 337 336 338 339 338 339 339 341 342 343 342 342 341 338 336 337 337 337 339 341 340 340 340 340 341 341 341 341 341 341 340 339 338 336 334 333 329 328 328 328 329 331 331 333 334 336 339 340 340 339 336 337 336 338 337 337 337
341 342 342 342 342 341 345 347 347 349 349 348 347 347 346 346 346 344 342 342 342 340 340 340 339 339 338 338 337 336 336 339 338 338 341 343 342 341 341 341 339 338 337 336 336 336 339 339 339 339 339 339 339 340 340 340 340 339 338 337 336 335 333 331 327 327 327 328 329 330 332 333 334 338 339 338 338 338 336 336 337 337 336 334 334
340 342 343 342 342 345 341 343 345 347 348 348 348 347 346 346 345 345 343 342 341 339 339 339 339 339 338 337 337 336 336 339 338 338 340 340 340 340 340 340 338 337 336 336 336 335 338 339 337 338 339 338 338 339 338 338 338 337 336 335 334 333 330 329 329 328 329 330 331 331 330 332 333 337 337 337 337 336 334 333 333 333 331 331 331
339 341 342 343 342 342 342 340 343 344 346 347 347 347 346 346 345 345 343 342 341 340 339 339 339 338 337 337 337 336 336 338 336 337 338 339 340 340 340 338 338 337 335 335 334 336 337 337 337 337 337 337 336 336 336 336 335 334 333 332 331 329 327 325 326 327 329 330 330 331 331 332 336 337 336 338 336 334 333 332 330 329 329 329 332
340 340 342 342 341 341 341 342 339 339 343 345 345 345 346 346 345 345 343 342 340 339 339 339 339 338 338 337 337 336 336 335 335 336 336 337 338 338 337 337 337 336 334 334 334 336 336 337 337 335 335 335 336 336 335 334 334 333 332 331 329 328 324 323 322 324 326 328 329 330 330 332 335 336 335 335 333 332 331 331 330 331 331 331 330
340 340 341 341 340 340 341 341 338 335 336 338 340 342 343 345 345 345 343 342 340 339 339 339 339 339 338 337 337 338 338 338 336 335 335 335 336 336 336 335 334 333 334 334 333 333 335 336 335 334 335 335 334 334 334 333 332 331 331 329 329 326 323 321 321 322 323 325 328 328 329 329 331 332 332 333 332 331 331 330 331 330 330 330 329
339 340 340 341 341 341 340 339 337 338 339 336 334 339 341 343 343 343 342 341 340 339 339 339 339 339 339 338 337 337 338 338 337 336 336 337 337 336 334 333 333 333 333 333 334 334 335 334 333 333 334 334 334 334 333 333 332 331 329 329 328 326 324 322 320 321 322 324 324 328 329 331 330 330 330 331 331 331 330 331 329 326 325 325 325
339 339 340 341 341 341 340 338 337 337 338 338 338 337 336 339 340 340 340 341 340 339 339 338 337 338 337 335 334 332 332 334 335 336 335 334 334 334 334 334 333 332 332 331 334 334 333 332 331 332 333 333 334 333 333 332 331 329 328 326 323 321 320 321 320 321 321 321 324 326 328 331 331 330 330 330 330 330 331 330 329 328 328 327 326
337 338 340 341 341 341 339 338 338 337 337 337 337 337 334 333 337 338 338 339 338 337 336 334 332 331 330 328 326 325 324 325 325 327 330 333 331 329 333 333 332 331 331 331 333 333 332 330 330 330 331 332 332 332 331 330 329 327 325 323 320 318 319 319 319 320 321 321 320 324 331 332 333 331 331 332 331 330 330 329 325 324 325 326 325
338 338 339 340 341 341 340 339 338 336 337 337 337 337 336 331 332 332 334 336 335 333 333 327 324 322 322 321 322 322 321 320 320 321 322 324 324 326 331 332 331 331 330 330 332 332 331 329 328 328 327 325 324 325 326 327 326 325 322 319 316 316 315 316 317 318 320 323 326 328 331 332 331 333 333 332 331 331 330 326 325 323 324 323 322
336 336 338 339 340 340 340 340 338 337 336 338 338 337 335 334 336 335 335 333 328 326 326 326 326 323 320 322 322 321 320 319 320 324 321 323 323 323 327 331 331 330 330 329 331 331 330 329 327 326 325 322 318 313 315 319 321 320 318 315 314 313 313 314 315 316 318 322 324 329 332 331 330 331 332 332 331 330 329 326 325 324 324 323 322
334 336 337 338 339 340 340 340 339 338 337 338 338 336 336 336 335 335 335 328 327 326 325 324 323 323 322 321 320 320 319 318 319 320 321 320 322 322 326 328 330 329 329 329 330 330 329 328 326 324 321 317 310 309 311 311 312 314 313 313 311 311 312 312 313 315 317 320 324 329 330 331 331 332 330 329 327 328 326 324 323 322 322 321 321
334 335 336 338 339 338 339 340 339 339 338 338 338 336 336 336 335 335 335 332 327 325 324 323 322 322 321 320 320 320 319 318 321 322 321 321 321 322 324 325 327 325 326 326 328 329 327 323 321 318 313 309 307 308 309 310 311 311 311 311 310 310 310 310 311 313 315 319 326 328 330 330 328 326 326 328 329 327 324 323 321 321 321 320 320
333 335 335 337 338 338 338 339 340 340 339 338 338 336 337 336 336 336 336 333 328 325 323 323 322 321 320 320 320 319 318 318 317 318 318 318 318 319 319 319 318 317 319 316 317 315 310 306 307 307 306 307 306 306 308 309 309 310 309 309 309 308 308 308 310 312 313 315 319 325 327 327 326 329 329 329 327 325 322 320 321 321 320 320 319
327 332 334 336 337 338 338 339 339 339 338 339 338 337 336 335 335 336 336 334 331 327 323 322 321 320 319 320 319 318 317 317 316 316 316 317 317 315 316 316 315 315 316 314 311 308 305 305 305 305 304 305 305 305 306 307 308 308 308 307 307 307 306 307 309 309 309 312 317 323 326 327 325 327 326 326 326 324 321 320 321 320 320 319 319
327 331 332 334 337 338 338 338 338 339 338 339 339 337 337 337 336 336 335 334 333 328 324 321 320 320 320 320 319 318 317 316 315 315 315 316 316 315 314 315 315 314 314 313 309 306 305 304 304 303 303 304 304 304 304 305 306 307 307 306 306 306 305 305 305 305 306 309 312 318 323 326 326 327 326 326 326 324 322 319 321 320 319 318 318
325 329 330 333 333 336 338 338 338 338 338 339 338 337 338 337 336 332 336 334 333 330 326 322 320 321 322 320 318 318 317 316 315 314 313 314 314 314 313 312 313 314 313 312 307 304 304 304 303 303 303 303 303 303 303 304 304 306 306 305 305 305 304 304 304 304 304 306 309 313 320 325 326 326 327 327 325 323 321 320 322 320 321 318 317
324 326 328 330 332 335 337 337 338 338 339 338 337 338 338 338 336 336 336 331 335 333 329 324 320 321 325 319 318 317 317 316 315 314 312 312 312 312 311 311 311 312 311 308 306 305 304 303 303 302 302 301 302 302 302 302 303 304 305 304 304 304 303 303 303 303 303 303 306 310 317 323 326 326 326 326 325 323 321 323 320 321 319 318 317
325 327 327 329 332 334 336 337 337 337 338 338 337 337 338 338 337 336 337 333 336 335 332 327 323 324 327 320 318 317 317 316 315 313 311 310 310 310 309 309 310 310 309 307 305 305 304 303 301 301 301 300 301 301 301 300 300 301 302 303 302 302 302 302 302 301 301 302 303 305 312 316 322 326 325 326 324 322 321 320 320 321 319 318 317
325 324 326 328 330 332 334 336 338 335 337 338 337 337 338 337 337 337 337 335 336 336 334 331 326 327 330 323 320 317 317 316 315 313 311 310 309 309 308 307 308 308 308 306 306 305 304 303 301 300 300 299 299 299 300 299 298 299 299 301 301 301 301 301 301 300 301 300 300 301 304 311 315 320 324 322 321 320 319 321 321 319 318 317 316
324 325 327 328 329 331 333 334 337 336 336 337 336 337 337 337 337 337 337 336 337 336 335 334 329 329 332 326 322 319 317 316 315 313 311 310 309 308 307 306 307 307 306 305 306 305 303 302 300 299 299 298 297 297 298 298 297 297 298 298 298 299 299 299 299 299 298 298 298 299 300 303 308 313 317 322 320 319 319 318 318 318 317 316 316
326 326 326 326 329 331 333 333 334 335 335 336 336 336 337 337 337 337 337 336 336 336 335 335 334 332 332 329 325 322 319 318 315 313 310 310 309 307 306 306 307 306 305 306 306 304 302 300 299 298 297 297 297 297 298 296 296 295 296 296 297 296 296 296 295 296 296 295 296 296 297 299 299 305 309 314 320 319 320 319 317 318 317 315 315
325 325 325 326 329 332 333 333 332 333 333 335 334 335 335 336 336 337 336 337 337 336 335 336 335 334 333 332 327 324 321 320 317 314 312 312 311 307 306 305 306 306 305 307 305 303 301 299 298 297 298 297 296 296 296 295 294 294 294 294 294 294 293 293 292 292 291 292 293 294 295 296 297 298 300 307 311 316 318 317 317 316 315 314 313
321 323 324 326 327 330 332 333 331 332 330 333 332 332 332 333 334 335 336 336 337 336 336 336 335 335 334 333 331 325 322 322 319 315 313 314 313 308 306 306 306 306 306 307 306 303 300 299 297 297 296 296 296 296 296 294 294 294 293 294 293 292 292 291 291 290 290 289 291 292 293 294 295 295 296 296 301 307 314 318 313 314 313 313 313
322 323 325 325 326 329 329 332 330 331 331 331 331 331 330 330 332 330 335 335 335 336 336 336 336 335 334 334 333 329 324 324 322 318 315 316 314 311 308 306 307 307 307 307 305 302 300 299 298 297 295 294 294 293 293 292 293 293 292 293 292 292 290 290 290 289 289 289 290 291 292 292 293 294 295 293 295 301 309 313 315 314 312 312 313
323 323 324 324 325 327 327 329 329 330 331 330 330 329 329 327 329 331 333 333 334 335 336 336 336 335 335 334 333 331 327 326 325 322 319 318 316 314 312 309 308 308 308 308 305 302 300 299 297 297 296 294 293 292 292 292 293 292 292 292 292 291 290 290 289 289 290 289 288 289 291 290 291 293 289 291 292 294 302 308 310 311 313 312 311
322 322 324 324 325 326 327 328 329 329 331 330 330 329 328 326 325 329 328 331 333 334 335 335 335 335 335 334 334 333 329 328 327 325 323 322 319 316 315 312 310 309 309 308 306 302 300 299 297 296 296 295 293 292 292 293 294 293 291 291 290 290 290 289 290 291 289 288 287 287 287 287 287 287 288 288 289 291 292 298 303 304 307 313 314
322 322 323 324 324 325 325 325 326 327 328 329 328 327 324 324 322 324 326 329 331 332 332 333 334 335 335 335 334 333 330 330 328 327 325 324 321 318 316 314 311 310 310 308 306 302 301 299 297 296 296 295 294 293 293 294 293 292 291 291 291 290 290 290 289 288 287 287 288 288 287 287 286 285 286 286 287 289 290 289 290 290 296 308 311
320 321 321 322 323 323 323 324 325 326 326 326 324 323 322 321 321 317 323 326 329 328 330 331 332 333 333 334 334 334 332 330 329 328 327 325 324 320 317 315 312 311 310 308 306 303 301 299 297 296 295 295 294 293 294 293 292 291 291 290 290 290 289 288 287 287 288 288 288 287 286 285 286 284 285 284 285 286 288 287 289 287 289 298 304
317 320 320 321 322 323 322 322 324 324 324 323 322 323 322 321 319 321 323 325 326 326 327 329 330 331 332 334 333 333 332 331 330 329 328 324 325 322 318 316 313 312 310 309 308 305 303 301 298 297 295 293 293 294 293 293 290 289 290 289 289 290 291 288 287 288 287 286 286 286 286 286 284 285 284 284 284 284 284 285 285 285 286 285 290
315 318 319 321 322 322 321 322 322 323 324 324 323 323 324 324 323 323 323 322 323 323 325 326 328 328 329 332 332 332 332 331 329 330 328 327 325 323 319 316 314 312 311 311 309 305 303 301 299 297 297 294 292 293 293 293 290 290 287 287 288 289 289 288 288 288 287 286 285 285 285 285 285 284 285 285 284 284 284 284 284 284 284 285 285
316 317 320 320 320 321 321 321 321 322 323 324 323 323 323 322 322 316 321 311 315 319 320 320 320 326 327 329 331 332 332 331 330 328 329 328 326 325 321 318 315 312 311 310 309 307 304 302 299 298 295 296 293 293 293 296 292 290 289 287 285 285 287 288 288 288 287 285 285 285 286 285 285 285 286 286 285 284 284 283 283 283 284 284 285
311 313 316 318 319 320 320 320 321 321 322 322 320 321 317 315 314 310 313 315 313 311 312 313 318 321 324 327 330 332 332 331 331 330 329 329 328 326 323 319 317 314 313 311 309 307 305 302 300 300 298 294 293 292 294 295 292 290 287 289 289 289 287 286 285 286 286 285 285 285 285 285 286 286 286 286 285 285 284 284 283 284 284 285 285
310 313 316 318 320 319 320 320 320 320 321 319 318 315 314 310 308 308 308 308 308 308 310 315 318 320 323 324 327 328 330 331 331 330 327 328 328 327 324 321 318 316 314 312 310 308 306 303 302 300 298 297 293 293 293 294 293 296 294 288 287 286 287 287 284 284 285 285 286 286 286 285 285 285 285 284 284 285 285 285 285 285 285 285 284
308 311 315 318 318 318 317 317 317 317 318 317 316 315 316 315 311 312 312 311 312 310 313 317 318 319 322 324 321 324 326 326 327 328 328 327 328 327 325 322 319 317 315 314 312 310 307 304 302 302 299 299 297 293 292 293 294 293 295 298 292 291 289 285 285 283 285 286 287 287 286 285 284 285 285 284 285 285 286 286 286 286 286 285 284
306 308 308 311 313 314 315 315 316 316 316 315 314 314 314 314 315 317 317 315 315 314 311 309 315 318 317 319 321 318 321 324 324 325 325 324 326 327 327 325 322 320 316 315 313 310 308 305 304 303 301 301 299 295 293 292 293 293 294 294 296 294 291 285 285 285 282 285 285 286 286 286 284 284 284 285 286 286 286 286 286 286 286 286 285
302 302 305 304 309 311 312 313 314 314 314 314 313 315 316 314 314 315 315 315 315 315 309 306 306 310 314 315 316 317 317 318 322 322 323 324 322 323 323 322 322 321 317 316 314 311 309 307 304 304 303 302 300 299 295 293 291 291 293 293 294 295 293 293 292 291 288 284 284 285 286 286 285 285 285 285 285 284 285 285 285 285 285 285 285
300 302 304 305 305 306 308 309 311 311 312 312 312 312 315 315 315 315 313 313 313 309 303 303 305 304 312 312 313 315 315 315 316 319 321 323 321 322 322 321 321 320 314 316 316 313 310 307 304 303 303 302 301 301 299 295 293 294 292 292 294 294 292 292 292 292 287 286 285 283 283 285 284 285 285 285 285 285 285 285 285 285 285 285 285
299 300 300 301 302 302 305 306 309 309 310 310 311 311 312 312 313 312 313 312 306 302 302 304 303 302 308 309 311 313 314 314 313 313 315 318 320 320 321 322 321 320 314 316 316 313 311 308 306 304 304 302 302 301 301 299 296 297 296 294 293 292 291 290 290 290 288 290 288 283 284 283 282 284 285 285 284 285 285 285 285 285 285 284 284
297 298 299 299 300 302 304 305 307 307 308 309 310 310 311 311 313 312 311 311 306 305 303 303 302 301 306 307 308 311 311 312 312 311 313 314 314 314 318 321 322 319 316 316 316 315 312 310 308 306 304 303 302 301 301 302 299 297 298 297 295 294 293 292 290 289 290 286 286 285 284 284 284 283 284 285 285 285 285 285 284 284 284 284 284
Wind_Speed
5 5 3 3 7 9 10 11 11 11 12 13 14 14 14 14 14 15 15 15 14 14 13 13 13 14 14 14 14 14 14 15 15 14 14 17 18 18 18 17 18 19 20 20 19 20 21 20 20 21 21 21 21 20 20 21 22 22 21 21 20 20 19 18 18 18 18 19 20 21 22 21 21 20 21 22 22 20 17 18 15 13 11 17 23
8 4 3 2 7 10 10 11 11 12 12 13 15 15 15 14 14 15 14 14 13 14 14 13 13 14 14 14 14 14 14 14 15 15 16 16 18 19 18 18 18 19 21 20 19 20 19 20 20 21 20 20 19 20 19 21 21 20 20 20 19 18 18 17 16 14 14 16 20 22 21 22 22 22 21 22 21 20 17 17 18 12 10 22 23
6 5 3 4 7 8 10 11 11 12 13 13 14 15 14 14 14 14 14 14 14 14 13 13 14 14 13 14 15 14 14 14 16 18 18 18 18 18 19 19 19 19 20 20 20 19 19 20 19 19 19 19 19 19 20 20 20 20 20 21 20 18 17 16 15 14 15 15 16 17 19 23 23 23 23 23 23 21 18 18 18 17 15 24 20
9 5 3 6 7 7 9 11 11 12 12 13 14 14 14 14 14 14 14 14 14 14 14 13 13 14 14 14 15 15 15 14 15 17 17 17 18 18 18 18 18 18 18 18 17 18 19 19 20 19 19 19 19 19 20 19 19 19 19 20 19 18 17 16 14 14 13 15 17 10 7 8 15 22 23 24 24 22 18 20 21 23 23 20 23
8 5 4 4 5 6 9 10 12 12 12 13 13 14 14 14 14 14 14 13 13 14 14 14 12 13 13 14 15 15 15 15 14 15 16 17 17 18 18 18 19 18 18 18 16 16 18 19 18 17 17 17 17 18 20 19 18 18 18 19 18 18 16 15 15 13 13 14 10 7 7 8 9 20 21 23 22 19 18 20 21 21 21 23 22
9 6 4 5 5 5 9 10 12 12 12 13 13 14 14 15 14 14 14 14 13 13 13 14 14 12 14 14 15 14 15 14 17 18 18 17 17 17 17 16 17 18 18 17 16 16 18 18 17 16 15 15 16 17 19 18 18 18 18 18 17 16 15 14 14 14 12 9 8 6 6 8 8 11 21 20 20 16 20 21 22 21 22 23 23
11 6 5 5 5 6 9 11 13 13 14 14 13 14 14 14 14 14 14 14 13 13 12 13 13 13 13 14 14 14 14 15 16 16 17 17 17 17 16 16 16 16 16 16 16 17 18 19 17 15 14 14 16 17 18 18 17 18 18 17 17 16 15 13 11 11 10 6 5 5 6 6 6 7 20 20 20 22 22 22 21 21 21 22 22
7 6 5 5 5 7 9 11 12 13 14 14 13 14 14 14 14 13 13 13 13 13 13 13 13 13 13 13 14 14 14 15 17 16 16 16 17 16 15 15 16 16 17 16 17 18 19 18 16 15 14 13 13 16 17 18 18 18 17 17 16 15 13 12 11 10 9 5 5 5 6 6 9 9 20 22 22 22 21 21 20 21 22 22 17
8 7 6 5 5 10 9 10 12 13 14 14 14 14 14 14 14 14 14 13 13 13 13 13 13 13 13 13 13 13 13 17 16 15 15 15 15 15 14 15 16 17 16 16 17 19 18 17 16 15 15 14 14 16 18 18 17 17 16 15 14 13 13 12 11 8 5 5 6 6 7 8 8 9 18 22 22 22 20 18 18 22 22 19 20
8 7 6 5 6 10 9 10 13 14 15 14 13 14 15 14 14 14 14 13 13 13 13 13 14 13 13 13 13 13 12 17 15 15 14 14 14 14 16 16 16 17 15 15 17 18 18 16 16 16 16 16 16 17 18 18 18 17 16 15 15 14 13 12 10 7 6 6 7 8 9 11 7 8 18 22 23 24 20 17 15 15 15 20 24
8 7 6 6 7 10 11 10 11 11 14 13 14 14 15 15 14 14 14 13 12 12 12 12 13 13 13 13 13 12 14 15 14 14 14 15 15 15 15 16 16 17 15 14 16 18 18 16 16 16 17 17 16 16 16 17 17 17 16 15 15 14 13 12 8 6 6 7 6 6 9 12 8 9 21 22 23 22 16 18 20 20 22 23 24
8 7 6 6 9 10 11 11 11 11 12 12 14 14 14 14 14 15 14 13 12 12 12 12 12 13 13 13 12 11 14 16 13 14 14 14 15 15 15 16 16 16 14 14 16 18 17 16 15 16 17 16 17 16 16 16 17 16 16 16 15 14 13 11 6 6 6 6 6 6 6 7 8 14 22 22 22 21 20 20 21 22 24 24 23
8 7 6 6 6 9 10 12 11 11 12 13 13 15 14 14 14 14 14 13 13 12 12 12 12 12 13 12 12 11 11 14 13 13 15 15 15 15 14 15 16 15 14 14 16 16 16 15 15 15 16 17 18 18 18 17 17 17 16 16 15 14 11 9 6 6 6 6 5 6 8 7 9 19 20 21 22 21 21 22 24 24 23 22 22
9 8 6 6 6 9 10 11 12 11 11 11 13 13 14 14 15 14 14 13 13 12 12 12 12 12 12 12 12 11 11 15 14 13 14 13 13 14 15 15 16 15 14 14 15 16 15 14 15 16 16 17 17 18 18 17 17 17 16 15 14 12 11 8 7 6 6 6 6 5 4 5 8 19 20 20 21 22 20 22 23 23 22 21 21
10 9 7 6 6 6 10 10 11 11 11 11 12 13 14 14 14 14 14 13 13 12 12 11 11 12 12 12 12 10 11 14 13 13 13 13 13 14 14 14 15 15 14 14 15 16 14 14 15 16 16 16 17 17 17 17 17 17 16 14 13 10 10 6 6 5 6 6 6 8 7 7 17 20 21 22 23 22 22 22 22 21 20 21 23
11 9 8 7 6 6 6 8 10 11 11 11 11 11 12 13 13 14 14 14 13 13 12 12 11 11 11 11 11 11 10 11 12 12 12 12 13 13 12 13 14 15 13 14 16 15 14 14 15 15 15 16 16 16 17 16 15 14 14 13 11 10 11 6 5 5 5 5 5 4 7 8 19 20 21 21 21 19 19 20 20 21 22 22 22
10 10 9 8 8 6 6 6 7 11 10 10 10 11 11 11 12 13 12 13 13 13 13 12 11 11 11 11 11 9 8 9 11 11 11 11 11 13 13 12 13 14 14 14 15 15 14 14 15 15 15 16 16 16 16 15 15 14 12 12 10 11 10 7 5 5 5 5 5 4 5 7 17 19 19 19 21 21 21 22 22 21 22 21 21
9 10 10 9 8 7 7 6 7 7 6 8 9 10 11 11 12 12 12 11 12 12 12 11 10 9 8 7 8 8 8 9 9 9 9 8 9 11 12 13 14 14 14 15 15 14 12 14 15 15 16 16 16 16 15 15 14 13 12 11 10 10 9 8 5 4 4 4 5 6 7 13 19 20 19 20 22 22 21 21 22 20 19 19 19
9 9 9 9 7 7 7 6 6 6 7 6 5 8 11 10 11 12 12 12 11 11 11 10 9 8 8 7 7 8 9 10 10 10 9 10 10 11 12 12 14 14 13 14 15 12 13 15 15 15 15 16 16 15 15 15 14 14 12 11 12 11 11 7 5 4 4 4 5 6 7 17 19 21 19 20 19 20 20 21 21 20 20 22 21
8 8 9 9 8 8 7 6 6 6 6 6 6 6 10 12 12 12 12 12 13 11 11 11 11 10 9 8 8 7 8 8 10 8 10 10 9 7 9 11 13 14 13 13 13 12 14 15 16 15 15 15 15 15 14 14 13 13 13 11 12 12 7 5 5 5 4 4 3 4 11 17 21 20 21 22 21 20 20 21 21 18 19 20 21
6 8 9 8 9 8 8 6 6 6 6 6 6 6 8 12 11 12 12 13 12 13 12 12 11 10 9 9 8 5 5 5 6 5 8 6 9 10 10 11 13 13 13 13 13 12 13 15 15 15 14 14 11 14 14 13 14 13 12 12 12 8 5 6 6 5 5 5 6 9 13 15 20 21 21 21 20 21 21 22 19 17 18 19 19
7 7 7 9 9 8 9 8 7 8 7 6 5 5 6 9 8 8 8 9 10 11 10 8 8 7 10 7 5 5 5 4 5 5 5 6 7 10 10 11 11 10 11 12 12 11 13 14 14 14 14 13 11 7 8 10 13 12 10 13 8 5 6 5 5 5 4 5 5 7 12 16 18 19 19 20 20 19 20 21 19 18 18 19 18
8 7 7 9 9 8 8 8 8 8 8 6 5 6 7 6 7 7 7 8 8 8 7 8 6 7 6 6 5 5 4 4 5 5 5 7 8 10 11 11 11 10 10 12 11 11 13 13 13 13 12 11 8 6 6 6 7 10 10 8 6 5 6 6 5 5 4 3 3 9 14 18 20 20 19 18 18 19 21 20 17 16 17 17 18
10 9 9 7 9 8 9 9 9 9 9 7 6 6 6 6 6 6 6 6 6 6 7 7 6 7 7 6 5 5 5 5 7 10 8 5 7 10 11 11 10 9 10 8 9 9 11 12 11 11 8 6 6 6 6 5 6 5 6 6 6 5 6 5 5 5 4 4 5 12 15 17 16 15 15 17 19 19 18 18 18 17 17 17 17
9 7 7 9 9 10 9 9 9 9 9 7 7 6 6 6 6 6 6 6 6 5 6 6 6 6 7 6 6 5 5 5 5 5 6 5 5 5 6 5 5 5 7 4 5 5 6 5 6 7 6 6 6 5 5 6 5 6 6 5 6 5 5 5 5 5 5 4 1 8 11 13 16 19 18 16 17 17 15 15 16 17 16 16 16
5 8 10 9 10 10 10 9 9 9 9 8 8 8 8 7 7 7 7 6 7 6 5 5 6 6 6 6 6 6 6 5 5 5 5 6 5 5 5 5 5 5 5 5 5 4 4 5 6 6 6 6 6 5 4 5 6 5 5 5 5 5 5 5 4 5 4 4 3 9 9 13 14 15 15 15 16 17 15 14 15 15 15 15 15
8 10 9 9 10 10 10 10 10 9 10 9 7 7 8 7 7 7 8 7 7 7 6 6 6 6 6 7 7 6 6 6 6 5 6 6 6 5 5 5 6 6 5 6 5 4 5 6 6 5 5 6 6 5 5 5 4 6 6 5 5 5 5 5 5 5 4 5 6 9 9 6 15 17 16 18 17 16 14 14 16 15 14 14 14
6 8 8 9 10 11 11 11 10 10 9 9 8 8 8 8 8 8 8 8 8 8 7 7 6 7 6 6 6 7 7 7 6 6 6 5 6 5 5 5 5 6 6 6 5 5 5 6 6 5 6 5 6 5 5 5 5 5 6 5 5 5 5 5 5 5 5 5 5 9 8 12 14 15 14 16 17 15 12 13 17 15 14 13 13
9 9 9 9 11 11 11 12 11 12 10 9 9 8 8 8 8 8 8 8 8 8 8 7 7 6 6 7 6 7 6 6 7 6 6 6 5 6 5 5 5 5 5 5 5 6 6 6 6 5 5 6 6 6 5 5 5 5 6 5 4 4 4 5 5 5 5 5 5 8 11 7 11 11 15 14 16 15 13 16 13 14 14 13 12
12 10 9 10 9 10 12 13 12 12 10 10 9 8 8 9 9 9 8 9 8 8 9 8 7 7 7 7 7 7 7 7 7 6 7 6 6 5 6 5 5 5 5 6 5 6 6 6 6 6 6 5 6 5 6 5 5 4 5 6 5 4 4 4 4 5 4 5 5 6 13 13 8 12 14 15 14 13 12 12 13 13 12 12 12
9 10 10 9 9 10 12 12 12 11 10 10 9 9 9 9 9 9 8 9 9 8 8 8 8 8 8 9 8 7 7 6 7 7 6 6 6 6 6 6 6 5 5 5 3 5 6 6 7 7 6 6 5 5 6 6 5 5 4 5 5 5 4 4 4 3 5 5 5 4 7 14 14 12 9 14 11 11 11 14 13 12 11 11 10
12 13 11 8 9 12 12 11 12 11 11 11 10 10 10 10 9 8 9 8 9 8 8 9 9 8 9 9 9 8 7 7 8 7 7 7 7 7 6 7 6 6 5 5 5 5 5 5 5 6 5 6 5 5 5 7 5 5 4 5 4 5 4 4 4 3 4 5 4 5 5 6 12 12 14 7 12 10 10 11 11 11 10 9 9
12 13 11 9 12 12 12 11 11 12 12 12 11 10 9 9 9 9 9 9 9 8 8 9 9 9 8 10 10 10 9 9 8 9 8 8 7 7 7 7 7 7 6 5 5 5 6 5 5 5 6 6 6 5 4 5 6 5 5 4 5 5 3 5 4 4 5 4 4 4 4 5 4 11 12 12 11 8 14 12 12 11 11 9 9
11 9 9 12 11 9 9 9 10 12 13 11 10 9 9 9 9 8 8 9 9 8 8 9 9 9 9 10 10 11 10 9 10 9 8 8 8 7 8 7 7 7 6 6 6 5 6 7 6 6 6 7 6 5 6 5 4 4 5 4 5 4 4 5 5 5 3 4 4 4 5 5 5 5 5 11 11 13 6 12 12 10 9 8 7
7 7 13 15 12 11 9 9 11 11 11 11 11 10 9 9 9 8 8 9 9 9 8 8 9 9 9 9 11 11 11 10 10 10 10 9 8 8 7 8 7 7 7 6 7 6 6 7 7 7 5 5 5 5 5 5 5 5 4 4 5 4 4 4 4 4 4 3 4 4 4 5 5 4 5 5 9 11 13 11 5 10 8 8 8
12 13 12 10 12 12 11 11 11 12 12 12 11 10 9 9 8 8 8 9 8 9 9 9 8 8 9 9 11 10 11 11 11 10 10 10 10 9 9 7 9 8 7 6 7 7 6 6 6 8 8 5 6 4 4 5 4 4 3 3 3 4 4 3 4 4 4 5 5 4 4 5 4 5 4 5 5 7 12 11 12 6 8 8 9
13 11 11 11 12 13 12 13 14 15 13 12 10 8 8 8 9 9 10 9 9 8 9 9 8 9 9 9 10 10 11 11 11 11 9 10 10 10 9 9 9 9 8 8 7 7 8 7 6 5 7 7 7 6 5 6 5 4 3 3 2 3 4 2 2 3 4 5 4 3 4 3 3 5 4 5 5 5 7 10 10 10 7 9 8
11 12 11 13 14 13 12 13 12 12 12 12 11 9 8 7 7 8 8 9 10 8 7 8 10 9 9 9 10 10 10 11 11 11 10 10 10 10 10 10 10 9 8 9 9 8 7 8 8 5 6 8 7 8 7 6 5 5 4 4 3 3 2 3 1 0 3 5 4 4 4 3 4 4 5 4 4 5 4 6 8 9 10 10 7
9 11 10 10 9 9 10 11 11 11 11 10 9 8 6 6 6 7 7 9 8 8 8 8 9 9 10 11 10 10 10 12 11 11 11 10 9 9 9 11 10 10 9 9 8 9 8 8 10 7 5 5 8 7 8 7 6 5 4 3 3 3 2 2 2 2 1 3 5 4 3 4 4 3 4 4 3 4 4 3 4 3 5 9 9
9 9 9 9 10 9 9 9 10 10 8 8 7 7 6 7 8 6 7 9 9 8 9 9 8 9 9 10 12 12 10 11 11 11 11 10 10 10 10 10 10 10 10 10 9 10 12 11 10 12 9 5 5 6 7 9 7 6 5 4 4 2 2 1 2 3 2 1 3 4 5 3 4 3 3 3 3 3 4 3 3 3 3 5 8
7 8 9 10 11 12 11 12 11 9 9 9 9 10 10 8 7 10 12 10 10 9 9 8 9 9 9 10 10 10 12 12 12 12 12 11 10 10 10 10 10 11 12 13 13 13 13 13 10 8 12 9 6 7 7 9 10 5 4 4 4 3 1 0 2 3 3 3 1 3 3 4 3 4 3 3 3 3 3 3 3 2 3 3 5
9 9 11 14 12 10 11 12 8 9 11 12 11 10 11 12 12 13 11 9 9 10 11 9 10 8 9 9 9 9 10 13 12 11 11 10 10 8 10 12 12 11 11 11 12 12 12 10 9 7 6 11 9 11 11 11 3 8 7 3 1 1 1 0 1 3 3 3 4 3 3 4 5 4 3 4 3 3 3 2 2 2 2 3 3
11 13 13 11 9 10 10 10 9 10 10 10 10 11 10 7 7 5 7 4 4 5 5 6 5 7 9 9 9 9 10 9 12 12 11 11 11 10 10 10 12 12 11 10 10 10 11 13 14 13 9 1 2 5 11 12 8 6 5 6 3 3 3 2 3 4 3 3 3 4 4 4 6 5 5 4 4 4 3 2 2 2 2 2 2
7 7 8 10 10 10 10 10 10 10 9 10 10 7 5 4 1 2 4 5 5 4 3 2 5 7 10 9 10 11 11 10 10 11 11 12 13 12 10 10 11 11 11 12 11 11 11 10 11 11 12 10 6 9 10 7 8 13 6 5 3 4 3 11 8 3 4 5 5 5 4 4 5 4 4 6 5 4 3 3 3 3 2 2 1
9 10 11 11 10 13 12 12 10 10 9 8 8 5 5 4 3 3 3 2 2 4 4 6 8 9 8 10 12 9 10 12 12 13 12 12 12 12 12 13 13 12 10 10 11 14 14 15 17 14 15 15 12 9 11 11 10 11 10 7 3 0 10 1 8 4 3 4 5 5 5 5 6 6 6 6 5 6 6 6 5 4 4 3 2
9 10 10 11 9 9 8 8 7 7 9 8 8 8 8 8 7 7 6 5 8 7 11 14 10 10 12 5 4 8 9 8 7 10 12 10 10 9 8 8 9 10 11 11 11 10 12 13 15 15 16 13 14 11 11 11 9 10 8 3 6 6 6 4 7 6 1 4 3 5 6 6 5 6 6 7 8 7 6 6 6 6 5 5 3
11 6 5 6 7 6 7 8 9 8 8 7 8 8 8 8 11 12 11 11 12 10 6 4 6 6 4 5 6 4 6 8 7 6 5 7 8 10 12 14 13 13 13 12 12 13 13 13 11 11 13 12 11 12 14 13 7 9 9 6 4 2 5 8 7 6 2 3 3 4 6 5 5 6 6 7 8 7 6 6 7 6 6 5 5
5 4 5 5 7 8 8 9 8 8 8 8 9 10 11 9 10 10 10 11 12 11 5 4 2 4 5 5 4 5 6 6 7 7 7 6 6 6 7 8 10 12 12 13 14 12 10 10 12 14 13 13 15 14 13 11 15 13 12 11 6 5 7 2 5 10 5 6 7 3 4 6 5 6 7 8 8 8 8 7 7 7 6 6 5
4 6 7 6 5 5 5 5 7 7 7 8 9 9 10 11 11 10 10 10 8 6 4 4 4 4 7 5 5 6 6 7 7 8 8 8 8 7 6 6 8 9 9 10 11 13 16 15 13 12 12 11 11 11 10 13 14 12 11 12 8 5 5 3 3 3 4 5 4 8 9 3 4 7 7 7 7 8 9 8 8 8 7 7 7
2 2 2 2 4 4 5 6 7 7 7 8 9 9 9 9 10 10 12 9 5 3 3 5 4 4 7 8 7 7 7 7 7 6 7 8 9 9 9 10 9 9 9 11 11 10 11 13 16 16 16 15 12 12 13 11 12 12 13 13 12 6 4 4 5 7 2 3 7 10 11 12 12 12 8 10 9 8 7 7 7 7 7 6 6
1 1 2 3 3 4 5 7 7 6 7 9 9 10 9 9 11 11 11 10 7 6 6 6 5 5 8 8 8 8 7 8 6 7 8 7 6 7 9 10 11 11 10 10 11 12 12 13 13 15 17 19 14 14 12 10 10 11 10 10 13 15 16 14 13 10 9 5 2 5 8 12 13 7 10 10 8 8 7 6 7 7 7 6 6
Wind_Direction
201 176 195 204 152 143 131 121 117 113 109 105 98 92 88 87 85 83 82 82 82 85 84 88 89 90 91 91 93 93 86 87 91 93 92 94 86 80 80 79 81 80 77 74 78 81 81 82 83 83 84 84 83 83 83 85 85 82 79 81 83 79 71 64 62 68 72 83 90 85 83 83 79 77 77 75 75 73 72 70 66 65 67 68 69
165 174 166 163 157 144 131 120 121 116 110 106 101 95 92 91 87 84 85 86 83 88 91 84 85 92 97 96 93 94 96 97 96 85 76 78 85 84 80 80 78 79 78 77 75 78 84 85 84 86 87 86 85 87 87 87 87 87 85 84 81 78 75 72 68 64 76 74 78 80 81 83 82 80 79 76 74 75 76 78 76 73 72 73 72
134 145 165 153 151 143 132 130 127 118 113 108 102 98 98 95 92 91 88 88 88 84 84 90 94 96 91 93 97 97 97 94 91 83 85 82 82 86 87 85 81 78 79 78 79 83 87 88 88 86 85 86 87 88 90 89 90 89 90 89 89 85 78 72 67 63 64 69 73 76 79 82 83 83 83 82 81 79 76 76 78 79 80 78 78
134 149 152 148 151 139 134 131 122 117 113 109 106 105 102 99 96 93 89 86 87 89 92 92 90 91 96 99 99 96 94 97 94 90 91 90 87 84 85 85 84 83 83 82 84 87 91 92 91 88 86 86 86 90 94 92 92 94 93 94 93 89 82 75 70 67 66 77 81 72 75 79 83 84 83 85 84 82 82 81 81 81 82 83 83
137 145 142 136 134 139 133 127 124 121 118 114 111 107 104 101 98 94 93 90 93 97 99 100 99 102 104 102 101 104 104 99 98 90 89 89 89 90 89 88 88 86 85 87 92 94 95 96 91 86 83 84 86 95 99 97 97 98 98 97 96 93 87 83 81 78 79 77 57 66 77 82 87 88 86 86 86 83 80 80 76 74 74 77 74
145 143 141 135 137 136 131 134 129 128 124 120 114 111 107 102 98 96 94 92 91 89 93 99 104 103 103 103 104 101 98 99 95 94 92 92 92 92 90 89 89 89 87 92 98 100 101 98 92 85 79 78 86 94 104 102 100 100 101 99 95 91 86 80 81 80 74 57 60 64 71 81 83 88 89 91 93 90 86 82 81 82 81 78 78
144 143 140 140 137 141 142 141 137 133 128 124 119 113 111 107 103 100 99 99 99 99 96 97 101 99 101 102 102 104 109 106 98 96 96 94 93 89 90 91 89 88 91 94 99 104 104 102 93 85 78 75 86 95 102 102 100 101 100 97 94 92 87 82 73 61 53 55 58 65 75 83 95 103 98 91 88 87 87 87 83 78 76 76 75
138 143 145 144 142 150 147 144 140 136 130 126 123 119 116 111 106 101 99 99 98 97 101 102 103 102 101 103 105 106 106 105 103 100 97 94 90 90 88 89 90 90 92 99 104 107 108 103 93 83 75 70 81 97 101 103 102 100 99 98 93 88 81 74 63 56 53 49 43 48 55 65 72 79 91 94 93 91 88 85 82 80 77 75 72
143 147 146 146 150 148 150 144 143 141 133 132 127 125 120 115 111 106 104 101 102 104 106 107 106 106 106 108 107 106 107 100 98 98 98 94 94 95 98 98 98 98 97 102 108 109 108 99 90 79 74 78 89 99 100 97 96 96 94 87 79 73 67 61 56 50 49 53 61 67 72 76 76 80 87 86 84 82 76 74 79 79 79 76 72
144 143 146 149 153 155 153 151 146 143 136 134 131 129 126 121 116 113 108 108 110 110 108 108 109 109 107 105 106 109 107 100 103 103 102 101 100 99 98 94 101 100 99 105 108 110 107 98 84 81 84 89 94 96 96 96 93 92 89 85 80 74 69 63 58 53 61 66 68 71 81 86 84 89 90 87 85 83 84 85 85 81 80 79 77
142 145 145 151 158 160 158 149 141 144 138 137 137 132 130 125 120 117 115 113 113 114 113 111 109 108 107 106 105 110 107 107 108 103 100 101 99 99 100 101 97 94 98 107 111 112 108 93 85 87 94 98 96 95 92 91 91 89 86 83 78 73 68 61 51 54 53 55 58 70 87 89 91 94 92 87 85 85 83 84 81 81 80 80 78
142 144 148 151 160 162 158 146 149 146 141 142 139 137 133 129 124 121 118 118 117 115 116 115 113 112 112 111 111 110 109 109 110 107 104 106 107 104 102 95 95 95 98 107 114 115 105 92 81 88 90 94 96 95 93 91 90 87 85 82 78 72 65 59 55 56 56 59 67 73 70 81 92 95 97 99 93 86 81 84 83 79 77 77 77
143 146 148 150 157 168 161 155 151 146 146 143 143 139 137 132 127 123 121 122 121 119 118 118 117 116 115 115 116 113 110 113 112 110 109 106 106 105 102 101 98 97 98 107 114 116 101 87 78 78 83 95 100 96 96 94 90 89 85 83 78 73 65 59 58 60 60 56 58 67 81 77 87 95 92 89 86 82 83 79 75 74 75 77 77
142 147 149 150 156 165 161 157 150 150 147 146 144 143 141 135 131 127 126 126 125 124 123 121 121 120 119 117 118 118 115 110 112 115 113 112 106 105 103 100 96 97 101 112 116 113 98 84 82 79 79 91 100 98 94 95 91 89 87 83 78 71 64 61 54 56 55 55 59 61 69 84 89 87 86 86 83 79 79 78 77 78 79 80 79
146 150 148 148 153 154 156 154 152 151 149 147 146 147 143 140 136 133 130 130 129 128 128 126 124 123 122 121 120 120 115 117 120 117 117 114 110 111 109 102 101 104 108 114 117 108 96 84 79 76 76 80 89 95 96 95 95 92 90 84 79 71 66 60 54 53 60 64 68 74 75 88 91 89 87 83 82 83 81 81 83 86 86 82 78
146 147 145 147 151 148 150 158 154 150 150 147 148 147 148 142 140 137 135 134 135 134 132 132 130 130 128 126 124 122 118 116 123 121 119 120 123 122 111 106 105 105 109 118 115 101 94 82 74 71 72 79 86 93 96 93 88 83 80 79 72 67 65 67 63 60 60 61 65 73 76 85 91 90 87 87 88 88 89 86 86 80 77 78 78
144 146 147 148 152 152 154 156 154 152 148 148 149 148 147 145 141 139 139 138 138 137 135 134 134 132 132 130 126 116 109 111 111 117 118 125 125 115 111 119 115 115 116 119 118 115 91 79 73 69 71 77 84 85 85 83 80 78 72 74 67 69 65 65 62 54 64 77 84 83 92 94 93 94 93 90 92 95 91 87 85 85 81 78 79
149 152 153 153 155 156 158 155 151 147 148 146 147 146 146 146 141 139 140 138 138 138 137 136 133 129 118 109 110 111 108 107 109 104 100 86 95 115 118 118 116 116 121 122 113 106 86 78 73 72 74 78 83 85 83 80 76 72 68 66 65 66 64 61 62 55 61 66 73 82 92 96 95 94 96 98 94 91 91 89 86 86 88 84 81
154 157 155 153 156 152 153 155 155 147 148 150 149 149 149 147 140 142 143 142 139 137 137 132 124 116 109 105 96 89 87 86 84 80 77 77 83 97 113 116 120 118 118 123 115 100 85 79 74 74 76 82 83 84 83 78 73 71 67 62 64 57 49 52 44 41 41 48 88 103 102 101 100 102 103 100 98 97 93 90 88 83 81 82 83
159 158 160 164 162 161 158 161 159 156 152 153 152 154 155 149 147 148 148 145 142 139 133 130 126 118 107 96 91 88 86 89 92 90 89 88 89 99 111 117 122 123 120 124 108 97 89 84 79 77 75 76 78 79 79 79 74 68 62 55 56 47 39 35 37 40 42 46 45 89 104 104 104 103 100 97 94 95 94 90 87 86 88 85 84
164 168 165 167 168 165 166 166 167 160 155 155 158 156 162 152 152 152 149 147 145 141 134 128 123 120 116 111 101 97 98 96 93 101 97 98 102 106 112 118 125 123 123 125 117 102 96 89 84 81 77 72 62 61 63 70 72 70 65 61 59 51 35 38 39 38 43 58 85 99 110 109 105 101 99 96 99 99 95 92 91 91 89 90 91
172 173 180 168 169 172 172 171 166 167 161 159 152 152 155 157 155 154 150 147 143 136 133 138 135 132 127 121 119 118 114 111 110 109 110 108 107 110 112 116 118 112 124 125 117 109 103 92 83 80 78 73 66 67 62 62 65 68 67 67 60 55 45 45 45 39 42 61 87 116 112 102 103 101 101 101 95 93 91 90 89 88 89 89 87
177 181 185 178 172 174 177 176 173 170 166 164 158 155 159 160 157 155 149 148 147 143 143 142 146 143 140 132 129 128 124 120 120 119 117 114 115 112 112 118 122 127 129 130 125 118 109 91 78 79 75 69 65 67 69 66 65 63 65 64 63 54 55 50 49 45 32 56 75 99 101 101 101 101 99 97 99 97 90 89 91 95 94 90 90
183 185 179 179 174 177 181 181 177 174 170 170 160 158 164 161 158 157 154 150 150 151 151 150 152 150 144 139 135 131 124 120 119 115 112 108 109 109 115 119 123 125 125 127 131 112 89 73 75 73 69 67 71 66 73 68 67 64 67 66 64 55 57 49 48 38 26 12 75 102 105 107 108 108 104 104 102 100 94 95 96 92 91 90 89
182 170 174 184 182 179 181 184 182 179 176 174 166 166 166 162 162 160 159 156 153 155 157 156 155 154 148 144 141 133 129 127 125 119 117 116 112 117 115 113 111 111 110 103 94 86 83 79 72 73 75 81 77 67 77 78 68 71 67 67 66 57 56 46 45 44 23 15 347 107 108 116 112 105 108 107 103 99 98 97 97 100 99 97 93
157 179 187 183 185 183 183 181 182 183 181 181 176 171 166 169 167 166 161 161 161 160 161 163 159 159 153 145 137 132 133 130 129 128 128 130 128 129 131 131 126 125 119 117 103 88 84 91 89 88 86 85 86 82 75 88 93 78 76 67 68 67 61 53 48 46 31 18 357 103 100 110 118 118 112 110 112 105 103 100 101 97 96 99 98
185 193 182 186 184 185 184 179 184 183 187 185 178 171 179 176 171 169 166 169 165 162 169 170 168 162 157 151 146 148 144 145 142 144 145 144 143 146 147 149 142 139 139 132 116 96 101 99 95 96 98 93 84 81 79 75 80 93 82 74 70 70 65 57 50 48 37 28 13 25 127 150 115 115 121 120 115 111 107 107 104 101 101 98 100
178 190 187 186 186 188 184 180 184 183 186 186 182 179 182 178 177 169 178 173 167 172 172 174 169 169 163 163 156 156 155 155 156 155 158 152 154 153 151 147 146 149 148 138 126 117 110 107 109 102 98 95 97 86 83 76 73 83 87 74 70 72 66 62 59 52 42 43 26 10 0 102 115 121 125 124 118 113 121 113 107 105 101 100 98
194 197 191 188 192 187 184 184 184 185 185 181 186 184 184 181 178 179 183 173 178 176 174 170 173 173 167 166 161 159 164 160 161 163 155 160 154 153 154 160 155 159 152 143 138 133 125 125 118 115 108 106 105 99 94 80 79 78 91 81 70 65 71 68 63 57 52 48 44 20 33 86 122 124 124 127 123 118 112 104 106 108 106 102 98
203 197 190 197 190 186 188 188 185 184 183 182 186 184 187 186 183 185 185 174 185 178 171 177 178 174 173 174 173 168 169 167 164 160 161 161 161 158 157 162 168 170 162 154 159 139 137 127 121 121 118 118 110 115 105 96 83 80 87 96 79 68 63 75 69 69 63 62 37 29 39 42 49 129 124 123 112 110 110 110 113 108 108 110 107
197 204 201 196 187 184 193 191 185 183 181 187 187 188 186 191 185 186 186 183 184 177 178 180 179 182 178 177 174 176 169 168 166 166 167 161 164 165 169 164 170 182 174 156 160 145 140 138 140 138 132 125 121 125 116 106 101 90 91 96 100 90 72 63 69 71 70 64 48 38 41 43 45 37 114 128 119 117 118 123 117 119 115 112 110
200 208 203 188 183 192 189 192 186 182 185 190 186 190 190 191 186 186 191 186 184 183 181 183 185 183 182 180 178 176 174 171 169 170 170 166 170 172 170 171 179 182 175 158 153 143 137 132 131 129 128 123 121 116 119 118 111 115 109 103 102 96 91 78 73 63 73 68 50 52 41 46 39 38 35 65 131 122 127 121 121 120 120 113 110
211 205 195 184 194 191 188 189 186 182 188 192 190 193 190 188 189 190 189 185 190 186 185 186 188 186 184 183 182 178 178 173 176 175 173 172 172 174 176 181 178 176 171 159 146 136 122 120 114 120 117 115 117 111 102 107 120 125 115 113 110 99 97 90 80 65 66 64 59 54 53 46 45 44 37 39 37 125 139 132 132 132 130 129 123
202 201 186 198 196 193 192 184 188 186 189 191 190 192 192 191 190 191 186 184 190 193 190 188 187 191 186 187 185 182 182 179 173 178 176 174 174 181 180 181 180 175 162 156 152 149 139 134 139 128 134 134 135 138 130 118 115 119 118 122 104 112 108 92 87 82 71 65 62 59 57 52 54 46 42 35 34 24 48 139 138 142 136 131 125
200 197 199 201 190 195 190 193 191 190 187 192 191 194 189 190 188 191 190 187 189 194 192 191 189 192 189 191 190 184 187 182 179 174 180 177 176 180 188 187 175 170 166 167 152 155 148 148 148 134 134 129 131 140 137 131 134 126 118 120 115 108 87 100 98 92 79 77 64 63 55 64 57 63 48 45 39 32 33 35 108 132 140 143 135
203 203 204 194 198 199 193 197 190 194 193 194 193 191 188 188 190 190 192 193 192 191 192 194 194 191 192 194 194 187 188 186 182 182 178 182 180 182 188 182 177 170 168 163 155 159 158 148 160 147 141 141 133 116 98 107 93 94 67 76 94 92 97 98 108 101 106 89 76 69 67 70 68 75 66 62 50 42 37 40 42 52 147 144 147
205 199 199 195 201 201 196 198 195 198 196 196 195 194 185 184 190 191 193 194 199 200 191 191 194 194 194 197 195 192 191 188 186 185 185 184 185 184 183 184 178 175 170 168 168 163 155 152 157 162 149 146 146 133 123 123 119 105 87 77 54 87 87 85 116 125 112 98 96 85 85 72 82 73 83 72 66 49 43 44 47 38 25 158 148
207 203 199 194 199 196 198 200 199 196 196 197 197 195 194 182 186 192 192 197 201 200 200 192 195 196 194 198 195 195 193 193 189 188 189 189 188 185 180 179 180 177 175 174 175 160 157 154 154 165 157 148 151 149 144 132 123 120 102 88 68 69 79 89 39 43 113 120 113 112 112 108 89 90 87 89 85 79 67 44 46 40 40 48 75
209 205 198 202 197 198 199 204 198 194 198 196 196 195 189 189 183 187 197 203 202 203 198 201 198 193 198 195 194 198 195 195 191 190 193 187 189 189 183 179 179 178 175 179 167 163 159 162 158 158 163 162 156 154 144 131 114 97 87 62 70 69 80 86 98 66 70 132 139 138 127 105 106 97 96 95 96 94 80 67 55 52 33 45 52
204 198 198 196 198 197 199 200 202 195 190 189 179 186 183 189 192 195 206 207 201 199 203 204 198 201 198 198 195 194 197 198 195 191 194 189 187 188 184 180 183 177 175 178 176 174 171 169 171 160 155 126 114 126 128 121 100 86 73 57 43 27 74 104 118 143 146 156 144 140 131 128 109 106 99 94 92 91 90 79 73 66 50 41 50
203 197 195 198 198 196 188 200 199 187 181 183 187 187 191 194 203 202 208 199 199 196 201 204 203 203 198 197 201 201 192 198 198 193 197 191 191 187 181 181 185 188 182 185 184 184 177 173 165 164 158 149 147 147 146 133 125 80 49 51 29 360 350 101 144 166 172 175 172 145 142 121 120 116 120 103 98 93 95 87 80 63 58 63 43
211 199 201 203 200 194 195 200 184 190 193 192 192 194 196 198 196 204 200 190 192 195 203 203 204 201 201 200 199 201 202 193 195 199 196 193 189 186 188 184 184 192 194 189 186 181 172 166 157 158 184 165 167 167 160 132 153 165 151 153 27 328 323 331 230 232 200 181 176 160 175 155 152 148 138 121 119 124 116 103 80 75 64 72 62
203 198 205 201 197 197 200 196 192 192 198 195 188 201 203 204 203 205 190 192 226 220 207 198 194 200 204 204 199 201 200 205 195 193 198 198 194 187 191 189 191 187 186 188 183 183 182 173 171 170 167 99 103 175 173 179 148 122 108 106 204 175 243 269 259 242 220 206 185 179 189 181 172 164 157 142 149 152 148 136 132 122 112 99 100
202 204 203 202 201 203 199 196 196 197 198 198 198 200 189 175 135 131 171 158 189 196 203 194 204 207 211 205 206 202 204 202 200 198 201 201 197 195 187 189 194 194 193 184 182 186 181 177 175 170 159 154 166 191 202 194 151 137 157 193 143 129 311 243 205 228 202 207 191 198 193 198 181 165 151 162 170 171 170 155 164 177 163 170 169
203 200 199 200 200 202 200 195 194 196 198 196 193 175 141 134 103 62 75 84 49 144 181 222 213 212 210 209 211 197 205 208 202 200 202 204 201 197 191 189 187 191 195 194 189 189 187 185 179 171 178 177 178 181 196 201 196 195 146 121 85 181 225 224 151 239 190 222 227 198 202 195 188 183 180 178 174 183 176 175 178 175 181 186 198
210 210 203 205 199 200 193 192 190 191 196 194 185 172 181 175 166 170 186 194 209 189 203 210 204 206 214 208 193 200 202 206 204 200 195 197 194 191 193 194 197 193 195 198 195 192 196 190 187 181 186 191 177 171 190 208 204 216 216 190 142 167 178 172 142 227 92 236 225 218 207 205 196 191 195 182 183 186 185 180 179 184 179 180 189
222 202 200 204 201 194 190 188 190 193 191 186 177 177 185 190 195 201 204 206 214 224 225 217 201 216 210 200 206 203 210 206 204 200 203 203 207 204 199 197 197 198 195 195 195 196 195 193 187 188 190 181 169 185 193 192 192 234 230 229 114 103 138 139 196 78 236 249 262 226 239 226 212 208 205 203 191 185 190 182 182 184 185 177 184
209 176 203 198 195 196 187 190 190 191 190 181 182 186 193 196 201 210 210 215 215 222 195 207 187 173 202 216 200 207 211 216 209 207 207 202 205 213 213 211 208 203 194 200 199 192 187 196 193 195 189 191 190 192 189 182 187 209 207 223 201 126 169 123 155 173 156 171 218 220 262 229 228 229 214 206 198 189 185 192 187 186 183 187 182
192 200 201 202 199 194 190 186 193 191 193 186 186 194 198 195 201 204 217 223 222 221 182 172 168 180 201 210 214 212 215 217 219 214 215 222 220 219 213 209 206 207 203 210 204 192 190 184 190 198 201 205 205 203 188 195 198 203 182 218 218 186 162 192 176 185 153 157 214 191 208 190 236 233 222 221 214 199 193 192 191 186 184 185 187
241 228 226 190 196 188 194 194 205 195 193 193 192 197 198 191 201 208 215 218 208 208 170 195 188 179 206 207 211 213 214 218 219 217 213 216 223 228 231 225 216 209 204 207 203 197 200 197 193 195 197 200 203 203 205 201 204 208 194 194 195 159 137 178 204 190 244 204 181 197 195 183 206 223 194 209 207 204 194 192 193 192 192 188 189
295 255 236 215 204 197 202 209 212 199 195 197 193 199 198 198 207 208 213 214 200 193 199 213 201 199 212 210 207 213 211 217 212 219 218 212 216 222 226 230 226 216 205 207 212 204 199 200 201 202 201 200 199 202 209 214 211 216 205 194 196 190 193 193 195 190 183 168 138 208 193 201 212 198 215 206 203 203 196 195 193 193 194 192 192